TimeEDT,TemperatureF,Dew PointF,Humidity,Sea Level PressureIn,VisibilityMPH,Wind Direction,Wind SpeedMPH,Gust SpeedMPH,PrecipitationIn,Events,Conditions,WindDirDegrees,DateUTC
12:56 AM,63.0,55.9,78,29.91,10.0,Calm,Calm,-,N/A,,Clear,0,2012-10-06 04:56:00
1:56 AM,59.0,55.9,90,29.90,8.0,Calm,Calm,-,N/A,,Clear,0,2012-10-06 05:56:00
2:56 AM,59.0,55.9,90,29.88,8.0,NNW,3.5,-,N/A,,Clear,330,2012-10-06 06:56:00
3:56 AM,60.1,55.9,86,29.85,8.0,Calm,Calm,-,N/A,,Clear,0,2012-10-06 07:56:00
4:56 AM,61.0,57.0,87,29.85,9.0,Calm,Calm,-,N/A,,Clear,0,2012-10-06 08:56:00
5:56 AM,57.9,55.9,93,29.84,7.0,Calm,Calm,-,N/A,,Clear,0,2012-10-06 09:56:00
6:56 AM,55.9,55.0,97,29.84,7.0,Calm,Calm,-,N/A,,Clear,0,2012-10-06 10:56:00
7:56 AM,57.9,55.9,93,29.83,9.0,Calm,Calm,-,N/A,,Clear,0,2012-10-06 11:56:00
8:56 AM,60.1,57.0,90,29.84,10.0,West,5.8,-,N/A,,Mostly Cloudy,270,2012-10-06 12:56:00
9:56 AM,61.0,57.0,87,29.84,10.0,West,4.6,-,N/A,,Overcast,280,2012-10-06 13:56:00
10:56 AM,64.0,57.9,80,29.84,10.0,WSW,3.5,-,0.00,,Overcast,250,2012-10-06 14:56:00
11:56 AM,64.9,57.9,78,29.86,10.0,West,6.9,-,N/A,,Overcast,280,2012-10-06 15:56:00
12:26 PM,64.4,55.4,73,29.88,10.0,WNW,12.7,20.7,N/A,,Overcast,290,2012-10-06 16:26:00
12:56 PM,63.0,53.1,70,29.89,10.0,NW,13.8,19.6,N/A,,Overcast,320,2012-10-06 16:56:00
1:56 PM,64.9,48.0,54,29.90,10.0,West,12.7,24.2,N/A,,Scattered Clouds,270,2012-10-06 17:56:00
2:56 PM,64.0,46.0,52,29.94,10.0,NW,17.3,24.2,N/A,,Scattered Clouds,310,2012-10-06 18:56:00
3:56 PM,62.1,42.1,48,29.95,10.0,NW,13.8,25.3,N/A,,Clear,320,2012-10-06 19:56:00
4:56 PM,61.0,42.1,50,29.95,10.0,NW,10.4,-,N/A,,Clear,310,2012-10-06 20:56:00
5:56 PM,60.1,41.0,49,29.96,10.0,West,11.5,-,N/A,,Clear,270,2012-10-06 21:56:00
6:56 PM,55.9,41.0,57,29.98,10.0,West,4.6,-,N/A,,Clear,280,2012-10-06 22:56:00
7:56 PM,51.1,44.1,77,30.01,10.0,West,3.5,-,N/A,,Clear,260,2012-10-06 23:56:00
8:56 PM,52.0,42.1,69,30.03,10.0,WSW,5.8,-,N/A,,Clear,250,2012-10-07 00:56:00
9:56 PM,51.1,41.0,68,30.05,10.0,West,5.8,-,N/A,,Clear,260,2012-10-07 01:56:00
10:56 PM,48.9,41.0,74,30.07,10.0,West,4.6,-,N/A,,Clear,280,2012-10-07 02:56:00
11:56 PM,50.0,41.0,71,30.08,10.0,West,3.5,-,N/A,,Clear,280,2012-10-07 03:56:00